Location: Newark
(23.3970°S, 47.6010°W)
Time: 06:30:16
(UTC+00:00)

deb Explorer IX - Pass Details

Date: 19 February 2020
Orbit: 548 x 1100 km, 38.8° (Epoch: 07 April)

Event Time Altitude Azimuth Distance (km) Brightness Sun altitude
Rises 02:26:02 0° 283° (WNW) 3,750 - -52.3°
Reaches altitude 10° 02:28:46 10° 277° (W) 2,858 - -52.5°
Maximum altitude 02:35:33 46° 205° (SSW) 1,436 - -53.1°
Drops below altitude 10° 02:42:34 10° 133° (SE) 2,957 - -53.6°
Sets 02:45:27 0° 127° (SE) 3,890 - -53.8°
